Date,TemperatureHighF,TemperatureAvgF,TemperatureLowF,DewpointHighF,DewpointAvgF,DewpointLowF,HumidityHigh,HumidityAvg,HumidityLow,PressureMaxIn,PressureMinIn,WindSpeedMaxMPH,WindSpeedAvgMPH,GustSpeedMaxMPH,PrecipitationSumIn
2013-4-1,61.9,50.4,38.2,49.1,42.5,33.2,89,75,57,30.12,29.96,25,9,25,0.01
2013-4-2,38.4,37.1,35.5,36.7,34.5,31.6,95,90,79,30.20,30.09,26,15,26,0.09
2013-4-3,37.9,36.4,35.6,36.4,35.1,34.0,95,95,93,30.29,30.17,20,10,16,0.04
2013-4-4,47.3,40.2,34.5,40.5,37.1,33.2,96,89,75,30.28,30.18,11,4,0,0.06
2013-4-5,64.1,49.4,33.9,50.3,43.0,32.3,96,80,59,30.23,29.83,22,6,22,0.06
2013-4-6,74.5,61.4,51.2,56.0,49.7,46.6,85,67,40,29.84,29.74,22,5,22,0.04
2013-4-7,75.3,61.6,47.5,63.5,56.6,44.9,96,85,63,29.82,29.57,20,7,20,0.03
2013-4-8,82.3,69.0,60.3,67.3,62.2,58.8,95,81,54,29.58,29.42,28,10,30,0.02
2013-4-9,74.0,55.8,32.4,64.5,50.4,30.1,92,82,61,29.99,29.46,29,12,29,0.01
2013-4-10,43.9,33.2,27.6,34.3,29.0,24.2,92,85,64,30.12,29.85,15,2,14,0.26
2013-4-11,59.6,42.7,27.6,39.3,30.2,23.1,85,64,34,30.07,29.75,18,4,18,0.27
2013-4-12,60.9,48.1,34.8,44.5,39.1,31.8,90,72,51,30.07,29.87,15,4,0,0.00
2013-4-13,73.8,58.8,45.7,52.2,44.9,39.2,82,62,35,30.02,29.61,25,10,25,0.00
2013-4-14,84.2,66.8,55.7,59.4,51.6,34.9,79,60,27,29.62,29.40,26,11,26,0.00
2013-4-15,67.7,58.3,49.0,51.6,39.0,29.7,65,49,37,29.79,29.58,28,13,28,0.00
2013-4-16,54.9,48.7,46.3,46.8,41.6,36.1,95,77,64,29.98,29.74,24,12,24,0.00
2013-4-17,48.6,46.8,42.0,47.8,46.0,41.2,98,97,95,29.90,29.61,26,9,26,0.09
2013-4-18,49.4,40.9,33.4,41.1,31.6,25.1,97,71,44,30.20,29.74,34,13,34,0.03
2013-4-19,67.3,48.5,29.9,34.7,27.0,21.0,80,49,19,30.27,30.05,20,3,20,0.00
2013-4-20,70.8,55.5,43.7,38.1,34.2,31.1,66,47,24,30.06,29.89,29,9,29,0.00
2013-4-21,68.3,59.3,49.9,52.0,44.5,34.1,78,59,44,30.09,29.98,22,9,22,0.00
2013-4-22,76.8,62.4,45.9,60.9,53.3,43.4,91,73,54,30.02,29.67,29,10,29,0.05
2013-4-23,45.7,36.5,34.5,43.4,32.8,27.6,93,86,73,30.34,29.85,34,14,34,0.02
2013-4-24,60.4,43.7,26.9,36.7,30.2,24.9,93,64,29,30.41,30.26,17,3,18,0.00
2013-4-25,66.8,54.3,38.4,41.5,35.6,31.0,82,53,27,30.34,30.06,18,5,18,0.00
2013-4-26,72.2,60.5,53.8,58.6,51.2,41.1,96,72,54,30.08,29.83,31,8,31,0.25
2013-4-27,71.0,58.6,51.0,56.4,52.6,49.9,97,82,51,30.14,29.97,18,5,18,0.11
2013-4-28,85.5,66.4,50.8,58.6,51.7,40.4,96,66,24,29.99,29.73,17,5,17,0.01
2013-4-29,89.3,73.8,61.0,61.1,54.0,42.6,89,56,21,29.77,29.56,27,9,27,0.00
2013-4-30,85.7,73.1,62.7,62.9,58.9,50.8,85,63,38,29.65,29.55,25,12,25,0.00